Home > Weather > Salalah > Past weeks

Flag for Oman Weather for the Past 2 Weeks in Salalah, Oman

Now
77 °F

Sunny.


Feels Like: 79 °F
Forecast: 65 / 84 °F
Wind: 7 mph from Southeast

Location: Salalah Airport

Current Time: Feb 9, 2016 at 6:22:04 PM

Latest Report: Feb 9, 2016 at 5:50 PM


Visibility: 10 mi

Pressure: 30.01 "Hg

Humidity: 51%

Dew point: 57 °F

Location of SalalahLocation

Historic Weather in Salalah — Graph

°F

Salalah Temperature Yesterday

Maximum temperature yesterday: 79 °F (at 3:50 PM)
Minimum temperature yesterday: 66 °F (at 4:50 AM)
Average temperature yesterday: 72 °F

High & Low Weather Summary for the Past Weeks

 TemperatureHumidityPressure
High88 °F (Feb 4, 3:50 PM)73% (Jan 29, 4:50 AM)30.21 "Hg (Jan 29, 4:50 AM)
Low64 °F (Jan 31, 6:50 AM)6% (Feb 5, 3:50 PM)29.92 "Hg (Jan 26, 3:50 PM)
Average75 °F38%30.06 "Hg
* Reported Jan 25 4:50 PM — Feb 9 4:50 PM, Salalah, Weather by CustomWeather, © 2016

Note: Actual official high and low records may vary slightly from our data, if they occured in-between our weather recording intervals... More about our weather records

Advertising

Salalah Weather History for the Previous 24 Hours

 ConditionsComfort  
Time TempWeatherWind HumidityBarometerVisibility
4:50 PM
Tue, Feb 9
77 °FPassing clouds.8 mph51%30.01 "HgN/A
3:50 PM79 °FPassing clouds.10 mph48%29.98 "HgN/A
2:50 PM79 °FPassing clouds.10 mph45%29.98 "HgN/A
1:50 PM79 °FSunny.12 mph45%30.01 "Hg10 mi
12:50 PM79 °FSunny.14 mph39%30.04 "Hg10 mi
11:50 AM79 °FPassing clouds.9 mph37%30.07 "HgN/A
10:50 AM77 °FPassing clouds.6 mph34%30.09 "HgN/A
9:50 AM75 °FPassing clouds.8 mph41%30.12 "HgN/A
8:50 AM73 °FPassing clouds.3 mph57%30.09 "HgN/A
7:50 AM68 °FPassing clouds.3 mph60%30.09 "HgN/A
6:50 AM66 °FPassing clouds.6 mph64%30.07 "HgN/A
5:50 AM66 °FClear.6 mph64%30.04 "Hg10 mi
4:50 AM68 °FPassing clouds.5 mph60%30.04 "HgN/A
3:50 AM68 °FClear.5 mph64%30.04 "Hg10 mi
2:50 AM68 °FClear.5 mph60%30.04 "Hg10 mi
1:50 AM70 °FClear.6 mph57%30.04 "Hg10 mi
12:50 AM70 °FClear.6 mph57%30.04 "Hg10 mi
11:50 PM
Mon, Feb 8
70 °FClear.6 mph57%30.04 "Hg10 mi
10:50 PM72 °FClear.6 mph53%30.04 "Hg10 mi
9:50 PM73 °FClear.3 mph50%30.04 "Hg10 mi
8:50 PM73 °FClear.No wind53%30.04 "Hg10 mi
7:50 PM75 °FPassing clouds.2 mph54%30.01 "HgN/A
6:50 PM75 °FPassing clouds.5 mph50%30.01 "HgN/A
Weather by CustomWeather, © 2016

See weather overviewHow to use our weather pages